Weather History for Platteville, WI

Change the Weather History Date:

Sunday, April 1, 2012

  Actual Average (KDBQ) Record (KDBQ)
Temperature  
Mean Temperature 50 °F 42 °F  
Max Temperature 57 °F 52 °F 82 °F (1946)
Min Temperature 42 °F 33 °F 17 °F (1954)
Degree Days  
Heating Degree Days 16 23  
Month to date heating degree days 23  
Since 1 July heating degree days 6334  
Cooling Degree Days 0 0  
Month to date cooling degree days 0  
Year to date cooling degree days 0  
Moisture  
Dew Point 45 °F    
Average Humidity 87    
Maximum Humidity 100    
Minimum Humidity 77    
Precipitation  
Precipitation 0.00 in 0.10 in 1.72 in (1959)
Month to date precipitation 0.10  
Year to date precipitation 5.12  
Snow  
Snow 0.00 in 0.10 in - ()
Month to date snowfall 0.1  
Since 1 July snowfall 40.0  
Snow Depth -    
Sea Level Pressure  
Sea Level Pressure 29.70 in    
Wind  
Wind Speed 10 mph (ENE)    
Max Wind Speed 17 mph    
Max Gust Speed 21 mph    
Visibility 4 miles    
Events      
T = Trace of Precipitation, MM = Missing Value Source: NWS Daily Summary

Daily Weather History Graph

Daily Weather History Graph

Search for Another Location

Airport:

Trip Planner

Search our weather history database for the weather conditions in past years. The results will help you decide how hot, cold, wet, or windy it might be!

Date:

Astronomy

Apr. 01, 2012 Rise Set
Actual Time 6:43 AM CDT 7:28 PM CDT
Civil Twilight 6:14 AM CDT 7:57 PM CDT
Nautical Twilight 5:40 AM CDT 8:30 PM CDT
Astronomical Twilight 5:05 AM CDT 9:06 PM CDT
Moon 1:52 PM CDT (4/1) 3:27 AM CDT (4/1)
Length of Visible Light 13h 42m
Length of Day
12h 45m
Waxing Gibbous, 69% of the Moon is Illuminated
Apr 1
Waxing Gibbous
Apr 6
Full
Apr 13
Last Quarter
Apr 21
New
Apr 29
First Quarter

Hourly Weather History & Observations

Time (CDT) Temp. Windchill Dew Point Humidity Pressure Visibility Wind Dir Wind Speed Gust Speed Precip Events Conditions
12:15 AM 42.8 °F 36.2 °F 39.2 °F 87% 29.75 in 5.0 mi ESE 12.7 mph - N/A   Scattered Clouds
12:35 AM 42.8 °F 37.5 °F 41.0 °F 93% 29.74 in 5.0 mi ESE 9.2 mph - N/A   Mostly Cloudy
12:55 AM 44.6 °F 39.2 °F 41.0 °F 87% 29.73 in 5.0 mi ESE 10.4 mph - N/A   Overcast
1:15 AM 44.6 °F 39.2 °F 41.0 °F 87% 29.71 in 5.0 mi East 10.4 mph - N/A   Overcast
1:35 AM 44.6 °F 40.2 °F 41.0 °F 87% 29.71 in 5.0 mi East 8.1 mph - N/A   Scattered Clouds
1:55 AM 44.6 °F 39.2 °F 41.0 °F 87% 29.70 in 5.0 mi ESE 10.4 mph - N/A   Scattered Clouds
2:15 AM 46.4 °F 41.5 °F 41.0 °F 81% 29.69 in 7.0 mi ESE 10.4 mph - N/A   Mostly Cloudy
3:15 AM 44.6 °F 40.2 °F 41.0 °F 87% 29.69 in 5.0 mi East 8.1 mph - N/A   Scattered Clouds
3:35 AM 44.6 °F 40.2 °F 41.0 °F 87% 29.68 in 5.0 mi East 8.1 mph - N/A   Scattered Clouds
3:55 AM 42.8 °F 38.6 °F 41.0 °F 93% 29.68 in 5.0 mi East 6.9 mph - N/A   Clear
4:15 AM 42.8 °F 38.6 °F 41.0 °F 93% 29.67 in 4.0 mi East 6.9 mph - N/A   Clear
4:35 AM 42.8 °F 38.0 °F 41.0 °F 93% 29.68 in 4.0 mi East 8.1 mph - N/A   Clear
4:55 AM 42.8 °F 39.3 °F 41.0 °F 93% 29.68 in 4.0 mi ENE 5.8 mph - N/A   Clear
5:15 AM 42.8 °F 38.6 °F 39.2 °F 87% 29.69 in 4.0 mi NE 6.9 mph - N/A   Scattered Clouds
5:35 AM 42.8 °F 38.6 °F 41.0 °F 93% 29.69 in 4.0 mi NE 6.9 mph - N/A   Mostly Cloudy
5:55 AM 44.6 °F 40.2 °F 41.0 °F 87% 29.69 in 5.0 mi NE 8.1 mph - N/A   Overcast
6:15 AM 44.6 °F 40.7 °F 42.8 °F 93% 29.69 in 5.0 mi NE 6.9 mph - N/A   Overcast
6:35 AM 44.6 °F 40.2 °F 42.8 °F 93% 29.69 in 5.0 mi ENE 8.1 mph - N/A   Overcast
6:55 AM 44.6 °F 39.2 °F 42.8 °F 93% 29.69 in 3.0 mi ENE 10.4 mph - N/A   Overcast
7:15 AM 44.6 °F 40.7 °F 42.8 °F 93% 29.70 in 3.0 mi ENE 6.9 mph - N/A   Overcast
7:35 AM 44.6 °F 39.7 °F 42.8 °F 93% 29.70 in 3.0 mi ENE 9.2 mph - N/A   Overcast
7:55 AM 44.6 °F 39.2 °F 42.8 °F 93% 29.71 in 3.0 mi ENE 10.4 mph - N/A   Overcast
8:15 AM 44.6 °F 39.2 °F 42.8 °F 93% 29.71 in 3.0 mi ENE 10.4 mph - N/A   Overcast
8:35 AM 44.6 °F 38.8 °F 42.8 °F 93% 29.71 in 2.5 mi ENE 11.5 mph - N/A   Overcast
8:55 AM 44.6 °F 40.2 °F 42.8 °F 93% 29.72 in 1.5 mi NE 8.1 mph - N/A   Overcast
9:15 AM 44.6 °F 39.7 °F 42.8 °F 93% 29.71 in 1.0 mi ENE 9.2 mph - N/A   Overcast
9:35 AM 44.6 °F 39.2 °F 44.6 °F 100% 29.72 in 0.5 mi ENE 10.4 mph - N/A   Overcast
9:55 AM 44.6 °F 39.2 °F 44.6 °F 100% 29.72 in 0.2 mi East 10.4 mph - N/A   Overcast
10:15 AM 46.4 °F 41.1 °F 44.6 °F 93% 29.72 in 0.2 mi ENE 11.5 mph - N/A   Overcast
10:35 AM 46.4 °F 41.5 °F 44.6 °F 93% 29.72 in 0.5 mi ENE 10.4 mph - N/A   Overcast
10:55 AM 46.4 °F 41.5 °F 44.6 °F 93% 29.71 in 0.8 mi ENE 10.4 mph - N/A   Overcast
11:15 AM 48.2 °F - 46.4 °F 93% 29.72 in 1.2 mi ENE 10.4 mph - N/A   Overcast
11:35 AM 48.2 °F - 46.4 °F 93% 29.72 in 1.5 mi ENE 9.2 mph - N/A   Overcast
11:55 AM 50.0 °F - 46.4 °F 87% 29.72 in 1.8 mi NE 10.4 mph - N/A   Overcast
12:15 PM 50.0 °F - 46.4 °F 87% 29.72 in 2.0 mi NE 10.4 mph - N/A   Overcast
12:35 PM 50.0 °F - 46.4 °F 87% 29.72 in 2.5 mi ENE 8.1 mph - N/A   Overcast
1:15 PM 53.6 °F - 48.2 °F 82% 29.71 in 3.0 mi NE 9.2 mph - N/A   Overcast
1:35 PM 53.6 °F - 48.2 °F 82% 29.71 in 4.0 mi ENE 9.2 mph - N/A   Overcast
1:55 PM 53.6 °F - 48.2 °F 82% 29.70 in 4.0 mi ENE 10.4 mph - N/A   Overcast
2:15 PM 53.6 °F - 50.0 °F 88% 29.69 in 5.0 mi ENE 11.5 mph - N/A   Overcast
2:35 PM 55.4 °F - 50.0 °F 82% 29.69 in 5.0 mi East 11.5 mph - N/A   Overcast
2:55 PM 55.4 °F - 50.0 °F 82% 29.68 in 5.0 mi East 13.8 mph - N/A   Overcast
3:15 PM 57.2 °F - 50.0 °F 77% 29.68 in 5.0 mi East 9.2 mph - N/A   Overcast
3:35 PM 57.2 °F - 51.8 °F 82% 29.69 in 5.0 mi East 11.5 mph - N/A   Overcast
3:55 PM 57.2 °F - 50.0 °F 77% 29.69 in 7.0 mi ENE 11.5 mph - N/A   Overcast
4:15 PM 57.2 °F - 50.0 °F 77% 29.69 in 5.0 mi ENE 13.8 mph - N/A   Overcast
4:35 PM 57.2 °F - 50.0 °F 77% 29.69 in 5.0 mi East 15.0 mph - N/A   Overcast
4:55 PM 57.2 °F - 50.0 °F 77% 29.69 in 5.0 mi East 16.1 mph - N/A   Overcast
5:15 PM 57.2 °F - 50.0 °F 77% 29.69 in 5.0 mi East 16.1 mph 20.7 mph N/A   Overcast
5:35 PM 55.4 °F - 50.0 °F 82% 29.70 in 7.0 mi East 16.1 mph - N/A   Overcast
5:55 PM 55.4 °F - 50.0 °F 82% 29.70 in 7.0 mi East 13.8 mph 18.4 mph N/A   Overcast
6:15 PM 55.4 °F - 50.0 °F 82% 29.70 in 7.0 mi East 17.3 mph 20.7 mph N/A   Overcast
6:35 PM 55.4 °F - 50.0 °F 82% 29.70 in 7.0 mi ENE 17.3 mph - N/A   Overcast
6:55 PM 53.6 °F - 48.2 °F 82% 29.71 in 5.0 mi ENE 13.8 mph - N/A   Overcast
7:15 PM 53.6 °F - 48.2 °F 82% 29.71 in 5.0 mi East 12.7 mph 20.7 mph N/A   Overcast
7:35 PM 53.6 °F - 48.2 °F 82% 29.71 in 5.0 mi East 11.5 mph - N/A   Scattered Clouds
7:55 PM 51.8 °F - 46.4 °F 82% 29.71 in 7.0 mi East 11.5 mph - N/A   Clear
8:15 PM 51.8 °F - 46.4 °F 82% 29.71 in 7.0 mi East 12.7 mph - N/A   Clear
8:35 PM 51.8 °F - 46.4 °F 82% 29.71 in 7.0 mi East 16.1 mph - N/A   Clear
8:55 PM 50.0 °F - 46.4 °F 87% 29.71 in 7.0 mi ENE 16.1 mph - N/A   Clear
9:15 PM 50.0 °F - 46.4 °F 87% 29.72 in 7.0 mi ENE 17.3 mph - N/A   Clear
9:35 PM 50.0 °F - 44.6 °F 82% 29.72 in 7.0 mi East 16.1 mph - N/A   Clear
9:55 PM 50.0 °F - 44.6 °F 82% 29.73 in 7.0 mi East 15.0 mph - N/A   Clear
10:15 PM 48.2 °F - 42.8 °F 82% 29.73 in 10.0 mi East 18.4 mph 23.0 mph N/A   Clear
10:35 PM 48.2 °F - 42.8 °F 82% 29.74 in 10.0 mi East 18.4 mph - N/A   Clear
10:55 PM 46.4 °F 39.5 °F 41.0 °F 81% 29.74 in 10.0 mi East 17.3 mph - N/A   Clear
11:15 PM 46.4 °F 40.1 °F 41.0 °F 81% 29.74 in 10.0 mi East 15.0 mph - N/A   Clear
11:35 PM 44.6 °F 37.8 °F 39.2 °F 81% 29.75 in 10.0 mi East 15.0 mph 20.7 mph N/A   Clear
11:55 PM 44.6 °F 38.4 °F 37.4 °F 76% 29.75 in 10.0 mi East 12.7 mph - N/A   Clear